FW5837 Weather Reports


Display with metric or nautical units.
time (UTC)temp
F
wind
direction
speed
MPH
gust
MPH
rain 1hr
in
rain 24hr
in
rain mn
in
humidity
%
barometer
mb
20260508123533 36 231 3.0 8.0 0.00 0.00 0.00 72 1008.7
20260508123058 36 261 3.0 8.0 0.00 0.00 0.00 75 1008.7
20260508122528 36 269 3.0 8.0 0.00 0.00 0.00 75 1008.7
20260508122030 35 223 2.0 9.0 0.00 0.00 0.00 75 1008.7
20260508121544 35 236 2.0 9.0 0.00 0.00 0.00 75 1008.8
20260508121030 35 242 3.0 10.0 0.00 0.00 0.00 76 1008.7
20260508120530 34 270 5.0 10.0 0.00 0.00 0.00 75 1008.7
20260508120046 34 250 4.0 12.0 0.00 0.00 0.00 75 1008.9
20260508115530 35 232 4.0 12.0 0.00 0.00 0.00 73 1008.8
20260508115030 35 207 3.0 7.0 0.00 0.00 0.00 73 1008.8
20260508114540 35 204 2.0 7.0 0.00 0.00 0.00 72 1008.7
20260508114031 35 248 3.0 9.0 0.00 0.00 0.00 72 1008.7
20260508113531 35 292 3.0 9.0 0.00 0.00 0.00 72 1008.7
20260508113102 35 246 2.0 9.0 0.00 0.00 0.00 72 1008.7
20260508112534 35 257 3.0 9.0 0.00 0.00 0.00 72 1008.7
20260508112030 34 228 2.0 7.0 0.00 0.00 0.00 72 1008.6
20260508111546 34 285 3.0 9.0 0.00 0.00 0.00 72 1008.6
20260508111028 34 259 3.0 9.0 0.00 0.00 0.00 72 1008.5
20260508110528 34 264 3.0 7.0 0.00 0.00 0.00 72 1008.5
20260508110054 34 246 2.0 5.0 0.00 0.00 0.00 72 1008.4
20260508105530 34 243 2.0 7.0 0.00 0.00 0.00 72 1008.3
20260508105029 34 242 3.0 7.0 0.00 0.00 0.00 71 1008.2
20260508104544 34 244 2.0 6.0 0.00 0.00 0.00 71 1008.1
20260508104028 34 233 2.0 6.0 0.00 0.00 0.00 70 1008.1
20260508103529 34 237 1.0 7.0 0.00 0.00 0.00 71 1008.0
20260508103052 34 246 2.0 7.0 0.00 0.00 0.00 70 1008.0
20260508102530 34 240 2.0 6.0 0.00 0.00 0.00 69 1008.0
20260508102031 34 259 1.0 5.0 0.00 0.00 0.00 69 1007.9
20260508101541 34 0 0.0 3.0 0.00 0.00 0.00 69 1007.8
20260508101030 34 236 1.0 3.0 0.00 0.00 0.00 69 1007.7
20260508100532 34 0 0.0 0.0 0.00 0.00 0.00 69 1007.6
20260508100044 34 0 0.0 2.0 0.00 0.00 0.00 69 1007.6
20260508095529 34 0 0.0 5.0 0.00 0.00 0.00 69 1007.6
20260508095029 34 0 1.0 5.0 0.00 0.00 0.00 68 1007.7
20260508094543 34 218 2.0 5.0 0.00 0.00 0.00 68 1007.6
20260508094030 34 219 2.0 5.0 0.00 0.00 0.00 68 1007.6
20260508093530 34 239 1.0 5.0 0.00 0.00 0.00 68 1007.6
20260508093044 34 254 2.0 6.0 0.00 0.00 0.00 68 1007.6
20260508092531 34 255 2.0 6.0 0.00 0.00 0.00 67 1007.5
20260508092028 34 248 3.0 9.0 0.00 0.00 0.00 67 1007.3
20260508091552 34 263 4.0 9.0 0.00 0.00 0.00 67 1007.2
20260508091031 34 249 3.0 7.0 0.00 0.00 0.00 68 1007.3
20260508090530 34 235 3.0 7.0 0.00 0.00 0.00 68 1007.3
20260508090059 34 240 3.0 7.0 0.00 0.00 0.00 68 1007.3
20260508085530 34 246 3.0 8.0 0.00 0.00 0.00 68 1007.2
20260508085030 34 254 4.0 8.0 0.00 0.00 0.00 67 1007.2
20260508084546 34 252 4.0 8.0 0.00 0.00 0.00 67 1007.2
20260508084032 34 262 3.0 10.0 0.00 0.00 0.00 67 1007.3
20260508083531 35 258 3.0 10.0 0.00 0.00 0.00 67 1007.3
20260508083043 35 244 3.0 10.0 0.00 0.00 0.00 66 1007.2
20260508082532 35 257 4.0 9.0 0.00 0.00 0.00 66 1007.1
20260508082030 35 259 4.0 9.0 0.00 0.00 0.00 66 1007.0
20260508081546 35 263 3.0 8.0 0.00 0.00 0.00 66 1007.0
20260508081032 35 248 3.0 8.0 0.00 0.00 0.00 66 1007.0
20260508080533 35 240 4.0 8.0 0.00 0.00 0.00 67 1007.1
20260508080039 35 244 4.0 10.0 0.00 0.00 0.00 66 1007.1
20260508075530 35 257 4.0 10.0 0.00 0.00 0.00 66 1007.1
20260508075027 35 255 5.0 9.0 0.00 0.00 0.00 66 1007.0
20260508074543 35 240 4.0 10.0 0.00 0.00 0.00 67 1007.0
20260508074031 35 248 4.0 10.0 0.00 0.00 0.00 67 1007.0
20260508073527 35 248 5.0 9.0 0.00 0.00 0.00 67 1006.9
20260508073043 35 249 4.0 13.0 0.00 0.00 0.00 67 1006.9
20260508072532 35 229 5.0 13.0 0.00 0.00 0.00 66 1006.8
20260508072031 35 227 4.0 12.0 0.00 0.00 0.00 66 1006.7
20260508071553 35 246 5.0 11.0 0.00 0.00 0.00 67 1006.6
20260508071033 35 253 5.0 10.0 0.00 0.00 0.00 67 1006.6
20260508070530 35 253 5.0 11.0 0.00 0.00 0.00 67 1006.5
20260508070044 35 252 4.0 11.0 0.00 0.00 0.00 67 1006.5
20260508065529 35 262 4.0 10.0 0.00 0.00 0.00 67 1006.5
20260508065031 35 251 5.0 11.0 0.00 0.00 0.00 67 1006.6
20260508064539 35 261 5.0 11.0 0.00 0.00 0.00 66 1006.7
20260508064032 35 256 5.0 10.0 0.00 0.00 0.00 66 1006.8
20260508063531 35 247 4.0 9.0 0.00 0.00 0.00 66 1006.8
20260508063043 35 243 4.0 12.0 0.00 0.00 0.00 66 1006.8
20260508062530 35 219 5.0 13.0 0.00 0.00 0.00 65 1006.8
20260508062030 35 232 5.0 13.0 0.00 0.00 0.00 66 1006.8
20260508061545 35 274 4.0 9.0 0.00 0.00 0.00 66 1006.8
20260508061031 35 260 4.0 9.0 0.00 0.00 0.00 65 1006.8
20260508060528 35 259 5.0 9.0 0.00 0.00 0.00 64 1006.9
20260508060044 35 255 4.0 9.0 0.00 0.00 0.00 64 1007.0
20260508055530 36 236 4.0 9.0 0.00 0.00 0.00 64 1007.0
20260508055030 36 246 4.0 9.0 0.00 0.00 0.00 64 1007.0
20260508054545 35 257 4.0 9.0 0.00 0.00 0.00 64 1007.1
20260508054030 35 221 3.0 7.0 0.00 0.00 0.00 63 1007.2
20260508053532 35 255 3.0 7.0 0.00 0.00 0.00 64 1007.1
20260508053100 35 247 2.0 8.0 0.00 0.00 0.00 63 1007.2
20260508052530 36 252 3.0 8.0 0.00 0.00 0.00 63 1007.2
20260508052029 36 250 2.0 6.0 0.00 0.00 0.00 63 1007.1
20260508051541 36 238 3.0 6.0 0.00 0.00 0.00 63 1007.2
20260508051030 36 228 2.0 8.0 0.00 0.00 0.00 63 1007.2
20260508050531 36 249 2.0 8.0 0.00 0.00 0.00 63 1007.3
20260508050047 36 246 2.0 8.0 0.00 0.00 0.00 63 1007.2
20260508045533 36 248 2.0 8.0 0.00 0.00 0.00 63 1007.3
20260508045030 36 272 2.0 8.0 0.00 0.00 0.00 64 1007.2
20260508044544 36 263 3.0 8.0 0.00 0.00 0.00 63 1007.4
20260508044032 36 259 2.0 6.0 0.00 0.00 0.00 63 1007.5
20260508043530 36 249 2.0 5.0 0.00 0.00 0.00 63 1007.3
20260508043044 36 301 1.0 5.0 0.00 0.00 0.00 63 1007.4
20260508042532 36 273 1.0 6.0 0.00 0.00 0.00 63 1007.5
20260508042032 36 252 2.0 7.0 0.00 0.00 0.00 63 1007.6
20260508041607 36 261 2.0 7.0 0.00 0.00 0.00 64 1007.7
20260508041032 36 263 3.0 7.0 0.00 0.00 0.00 64 1007.6
20260508040531 36 253 3.0 7.0 0.00 0.00 0.00 64 1007.6
20260508040105 36 261 2.0 7.0 0.00 0.00 0.00 64 1007.6
20260508035536 36 227 2.0 7.0 0.00 0.00 0.00 63 1007.6
20260508035034 36 257 2.0 7.0 0.00 0.00 0.00 64 1007.7
20260508034544 36 254 2.0 5.0 0.00 0.00 0.00 63 1007.8
20260508034032 36 267 2.0 4.0 0.00 0.00 0.00 63 1007.7
20260508033531 36 267 2.0 4.0 0.00 0.00 0.00 63 1007.7
20260508033044 36 266 2.0 3.0 0.00 0.00 0.00 62 1007.7
20260508032532 37 274 1.0 3.0 0.00 0.00 0.00 62 1007.8
20260508032031 37 274 1.0 3.0 0.00 0.00 0.00 62 1007.9
20260508031543 37 274 1.0 4.0 0.00 0.00 0.00 62 1007.8
20260508031028 37 274 1.0 4.0 0.00 0.00 0.00 62 1007.8
20260508030531 37 286 2.0 4.0 0.00 0.00 0.00 61 1007.8
20260508030041 37 271 2.0 6.0 0.00 0.00 0.00 60 1007.8
20260508025534 37 264 2.0 6.0 0.00 0.01 0.00 59 1007.9
20260508025033 38 274 1.0 5.0 0.00 0.01 0.00 59 1007.9
20260508024551 38 259 2.0 4.0 0.00 0.01 0.00 58 1007.9
20260508024035 38 263 2.0 4.0 0.00 0.01 0.00 57 1007.9
20260508023532 38 275 2.0 8.0 0.00 0.01 0.00 56 1007.9
20260508023045 38 239 1.0 8.0 0.00 0.01 0.00 56 1007.9
20260508022534 38 276 2.0 7.0 0.00 0.01 0.00 56 1007.9
20260508022032 39 244 2.0 7.0 0.00 0.01 0.00 55 1007.9
20260508021544 39 271 2.0 7.0 0.00 0.01 0.00 55 1007.9
20260508021032 39 259 2.0 7.0 0.00 0.01 0.00 54 1007.9
20260508020532 39 211 1.0 7.0 0.00 0.01 0.00 53 1007.8
20260508020050 39 244 2.0 7.0 0.00 0.01 0.00 53 1007.7
20260508015532 40 256 3.0 7.0 0.00 0.03 0.00 52 1007.7
20260508015032 40 248 3.0 7.0 0.00 0.03 0.00 52 1007.7
20260508014546 39 226 3.0 7.0 0.00 0.03 0.00 52 1007.6
20260508014032 40 253 2.0 6.0 0.00 0.03 0.00 54 1007.5
20260508013533 40 267 2.0 9.0 0.00 0.03 0.00 53 1007.4
20260508013052 40 251 3.0 9.0 0.00 0.03 0.00 52 1007.5
20260508012532 40 241 2.0 8.0 0.00 0.03 0.00 54 1007.4
20260508012035 40 261 3.0 11.0 0.00 0.03 0.00 53 1007.4
20260508011550 41 261 4.0 11.0 0.00 0.03 0.00 53 1007.2
20260508011032 41 238 4.0 11.0 0.00 0.03 0.00 53 1007.1
20260508010532 41 247 5.0 11.0 0.00 0.03 0.00 52 1007.1
20260508010046 41 244 4.0 9.0 0.00 0.03 0.00 52 1007.2
20260508005535 41 260 4.0 10.0 0.00 0.04 0.00 53 1007.1
20260508005035 41 240 4.0 10.0 0.00 0.04 0.00 52 1007.0
20260508004544 42 245 4.0 15.0 0.00 0.04 0.00 52 1007.0
20260508004032 42 252 4.0 15.0 0.00 0.04 0.00 53 1006.9
20260508003531 42 250 4.0 15.0 0.00 0.04 0.00 53 1006.7
20260508003044 42 281 4.0 8.0 0.00 0.04 0.00 53 1006.7
20260508002531 42 239 3.0 10.0 0.00 0.04 0.00 53 1006.6
20260508002031 42 265 5.0 12.0 0.00 0.04 0.00 53 1006.6
20260508001545 42 260 3.0 13.0 0.00 0.04 0.00 53 1006.6
20260508001031 42 230 3.0 13.0 0.00 0.04 0.00 52 1006.7
20260508000531 43 255 5.0 13.0 0.00 0.04 0.00 51 1006.6
20260508000043 43 259 5.0 15.0 0.00 0.04 0.00 51 1006.6
20260507235532 43 259 6.0 16.0 0.00 0.04 0.00 50 1006.5
20260507235032 43 257 8.0 16.0 0.00 0.04 0.00 50 1006.5
20260507234539 44 265 4.0 12.0 0.00 0.04 0.00 52 1006.5
20260507234030 44 255 5.0 12.0 0.00 0.04 0.00 52 1006.5
20260507233532 44 255 3.0 9.0 0.00 0.04 0.00 52 1006.6
20260507233057 44 246 3.0 9.0 0.00 0.04 0.00 52 1006.5
20260507232530 44 198 4.0 10.0 0.00 0.04 0.00 52 1006.4
20260507232029 44 273 4.0 12.0 0.00 0.04 0.00 51 1006.2
20260507231544 44 217 4.0 13.0 0.00 0.04 0.00 51 1006.4
20260507231031 44 238 4.0 20.0 0.00 0.04 0.00 50 1006.4
20260507230532 45 236 6.0 20.0 0.00 0.04 0.00 49 1006.4
20260507230046 45 267 6.0 21.0 0.00 0.04 0.00 47 1006.2
20260507225531 46 245 7.0 21.0 0.00 0.08 0.00 47 1006.3
20260507225033 46 271 7.0 19.0 0.00 0.08 0.00 47 1006.3
20260507224553 46 257 8.0 19.0 0.00 0.08 0.00 46 1006.3
20260507224029 47 205 7.0 18.0 0.00 0.08 0.00 47 1006.4
20260507223532 48 259 7.0 16.0 0.00 0.08 0.00 45 1006.2
20260507223043 48 250 5.0 13.0 0.00 0.08 0.00 47 1006.4
20260507222534 47 265 4.0 13.0 0.00 0.08 0.00 49 1006.4
20260507222033 47 238 5.0 15.0 0.00 0.08 0.00 49 1006.4
20260507221547 47 207 5.0 15.0 0.00 0.08 0.00 49 1006.4
20260507221032 47 265 5.0 12.0 0.00 0.08 0.00 49 1006.4
20260507220531 47 315 5.0 14.0 0.00 0.08 0.00 48 1006.4
20260507220044 47 257 6.0 19.0 0.00 0.08 0.00 48 1006.3
20260507215531 47 257 7.0 19.0 0.00 0.12 0.00 47 1006.3
20260507215031 48 251 8.0 19.0 0.00 0.12 0.00 48 1006.2
20260507214542 48 266 6.0 14.0 0.00 0.12 0.00 47 1006.3
20260507214032 48 270 7.0 14.0 0.00 0.12 0.00 48 1006.2
20260507213534 48 238 5.0 14.0 0.00 0.12 0.00 48 1006.4
20260507213058 49 250 8.0 14.0 0.00 0.12 0.00 46 1006.2
20260507212529 50 252 7.0 13.0 0.00 0.12 0.00 45 1006.2
20260507212030 50 263 6.0 12.0 0.00 0.12 0.00 47 1006.4
20260507211547 50 263 4.0 18.0 0.00 0.12 0.00 49 1006.2
20260507211032 48 269 6.0 19.0 0.00 0.12 0.00 49 1006.2
20260507210535 49 246 9.0 20.0 0.00 0.12 0.00 47 1006.0
20260507210047 50 210 6.0 20.0 0.00 0.12 0.00 47 1006.0
20260507205532 49 261 6.0 20.0 0.00 0.22 0.00 48 1006.0
20260507205028 49 213 5.0 22.0 0.00 0.22 0.00 49 1006.0
20260507204547 49 254 9.0 22.0 0.00 0.22 0.00 48 1005.9
20260507204035 49 273 8.0 21.0 0.00 0.22 0.00 47 1006.0
20260507203532 49 247 8.0 19.0 0.00 0.22 0.00 47 1006.1
20260507203045 48 247 6.0 19.0 0.00 0.22 0.00 50 1006.0
20260507202529 48 237 8.0 15.0 0.00 0.22 0.00 49 1006.0
20260507202033 48 261 6.0 17.0 0.00 0.22 0.00 50 1006.1
20260507201546 49 252 7.0 23.0 0.00 0.22 0.00 50 1006.0
20260507201034 49 257 8.0 24.0 0.00 0.22 0.00 50 1006.0
20260507200530 48 271 10.0 24.0 0.00 0.22 0.00 49 1006.1
20260507200048 49 239 9.0 20.0 0.00 0.22 0.00 48 1005.9
20260507195529 49 196 10.0 21.0 0.00 0.26 0.00 48 1005.9
20260507195031 48 229 8.0 23.0 0.00 0.26 0.00 50 1006.0
20260507194611 48 233 10.0 23.0 0.00 0.26 0.00 47 1006.0
20260507194032 47 263 8.0 18.0 0.00 0.26 0.00 49 1006.0
20260507193529 48 256 9.0 19.0 0.00 0.26 0.00 45 1006.0
20260507193049 49 260 9.0 19.0 0.00 0.26 0.00 46 1006.0
20260507192528 48 251 8.0 21.0 0.00 0.26 0.00 50 1006.1
20260507192032 48 242 9.0 21.0 0.00 0.26 0.00 47 1006.3
20260507191547 48 253 9.0 24.0 0.00 0.26 0.00 49 1006.5
20260507191032 48 248 11.0 24.0 0.00 0.26 0.00 46 1006.4
20260507190532 50 255 9.0 24.0 0.00 0.26 0.00 46 1006.2
20260507190051 50 175 8.0 20.0 0.00 0.26 0.00 46 1006.4
20260507185528 50 262 9.0 20.0 0.00 0.35 0.00 45 1006.6
20260507185028 48 244 6.0 17.0 0.00 0.35 0.00 50 1006.6
20260507184543 47 268 8.0 17.0 0.00 0.35 0.00 49 1006.6
20260507184031 47 230 5.0 15.0 0.00 0.35 0.00 50 1006.7
20260507183532 47 267 7.0 13.0 0.00 0.35 0.00 50 1006.7
20260507183047 48 169 6.0 13.0 0.00 0.35 0.00 49 1006.7
20260507182529 48 281 4.0 13.0 0.00 0.35 0.00 49 1006.7
20260507182029 48 273 7.0 13.0 0.00 0.35 0.00 47 1006.8
20260507181552 49 279 5.0 15.0 0.00 0.35 0.00 49 1006.9
20260507181035 48 233 7.0 17.0 0.00 0.35 0.00 47 1006.9
20260507180529 49 244 9.0 17.0 0.00 0.35 0.00 47 1006.8
20260507180052 49 239 8.0 16.0 0.00 0.35 0.00 47 1006.6
20260507175532 50 235 7.0 15.0 0.00 0.52 0.00 47 1006.8
20260507175032 49 256 7.0 15.0 0.00 0.52 0.00 48 1006.9
20260507174555 49 270 7.0 16.0 0.00 0.52 0.00 45 1006.9
20260507174029 50 195 6.0 17.0 0.00 0.52 0.00 47 1006.9
20260507173532 51 263 6.0 17.0 0.00 0.52 0.00 46 1006.9
20260507173116 50 234 8.0 17.0 0.00 0.52 0.00 47 1006.9
20260507172533 50 231 6.0 16.0 0.00 0.52 0.00 48 1006.9
20260507172031 50 248 5.0 16.0 0.00 0.52 0.00 46 1006.7
20260507171549 50 245 8.0 15.0 0.00 0.52 0.00 49 1006.9
20260507171032 49 256 6.0 20.0 0.00 0.52 0.00 52 1007.0
20260507170533 48 268 5.0 20.0 0.00 0.52 0.00 50 1006.8
20260507170055 48 219 10.0 19.0 0.00 0.52 0.00 47 1007.1
20260507165532 49 193 8.0 15.0 0.00 0.65 0.00 47 1007.0
20260507165034 49 249 6.0 15.0 0.00 0.65 0.00 48 1007.2
20260507164552 50 233 7.0 16.0 0.00 0.65 0.00 48 1007.2
20260507164032 49 64 7.0 16.0 0.00 0.65 0.00 48 1007.4
20260507163533 48 240 5.0 21.0 0.00 0.65 0.00 52 1007.5
20260507163048 48 263 10.0 21.0 0.00 0.65 0.00 50 1007.5
20260507162533 48 268 5.0 13.0 0.00 0.65 0.00 53 1007.5
20260507162030 48 242 7.0 25.0 0.00 0.65 0.00 53 1007.6
20260507161600 47 227 9.0 25.0 0.00 0.65 0.00 52 1007.6
20260507161028 48 266 6.0 18.0 0.00 0.65 0.00 53 1007.8
20260507160532 47 208 7.0 18.0 0.00 0.65 0.00 55 1007.7
20260507160047 47 242 7.0 18.0 0.00 0.65 0.00 55 1007.6
20260507155528 47 242 5.0 16.0 0.00 0.71 0.00 55 1007.7
20260507155028 46 271 6.0 20.0 0.00 0.71 0.00 57 1007.7
20260507154549 46 267 9.0 20.0 0.00 0.71 0.00 53 1007.9
20260507154031 48 259 5.0 13.0 0.00 0.71 0.00 57 1007.9
20260507153528 47 268 5.0 16.0 0.00 0.71 0.00 59 1007.8
20260507153049 47 281 4.0 16.0 0.00 0.71 0.00 59 1008.0
20260507152530 45 250 3.0 19.0 0.00 0.71 0.00 63 1008.1
20260507152028 45 281 7.0 19.0 0.00 0.71 0.00 61 1008.0
20260507151542 45 234 7.0 19.0 0.00 0.71 0.00 61 1008.0
20260507151031 45 232 7.0 19.0 0.00 0.71 0.00 60 1007.9
20260507150533 44 257 7.0 19.0 0.00 0.71 0.00 60 1007.8
20260507150052 45 263 7.0 16.0 0.00 0.71 0.00 64 1007.9
20260507145529 44 252 4.0 15.0 0.00 0.71 0.00 68 1008.0
20260507145028 43 254 8.0 16.0 0.00 0.71 0.00 64 1007.9
20260507144548 43 266 8.0 16.0 0.00 0.71 0.00 64 1008.0
20260507144029 43 253 7.0 16.0 0.00 0.71 0.00 66 1008.1
20260507143528 43 186 9.0 15.0 0.00 0.71 0.00 66 1007.9
20260507143046 43 252 6.0 18.0 0.00 0.71 0.00 66 1007.9
20260507142532 42 215 7.0 18.0 0.00 0.71 0.00 68 1008.0
20260507142029 42 197 9.0 18.0 0.00 0.71 0.00 66 1008.0
20260507141557 42 285 9.0 17.0 0.00 0.71 0.00 65 1008.0
20260507141028 42 317 7.0 19.0 0.00 0.71 0.00 69 1007.8
20260507140529 41 94 8.0 25.0 0.00 0.71 0.00 67 1007.8
20260507140045 41 213 10.0 25.0 0.00 0.71 0.00 68 1007.5
20260507135528 41 265 10.0 21.0 0.00 0.71 0.00 69 1007.6
20260507135028 40 217 8.0 21.0 0.00 0.71 0.00 69 1007.6
20260507134541 41 245 9.0 21.0 0.00 0.71 0.00 69 1007.6
20260507134031 41 201 9.0 24.0 0.00 0.71 0.00 70 1007.5
20260507133529 41 234 7.0 24.0 0.00 0.71 0.00 69 1007.6
20260507133048 41 244 7.0 23.0 0.00 0.71 0.00 72 1007.5
20260507132534 41 207 6.0 14.0 0.00 0.71 0.00 75 1007.5
20260507132027 40 224 6.0 14.0 0.00 0.71 0.00 73 1007.5
20260507131545 41 212 7.0 14.0 0.00 0.71 0.00 74 1007.7
20260507131032 40 269 4.0 14.0 0.00 0.71 0.00 77 1007.7
20260507130534 40 202 4.0 12.0 0.00 0.71 0.00 77 1007.6
20260507130047 40 238 5.0 17.0 0.00 0.71 0.00 80 1007.5
20260507125540 39 284 5.0 17.0 0.00 0.71 0.00 79 1007.6
20260507125029 39 244 6.0 13.0 0.00 0.71 0.00 78 1007.6
20260507124543 39 271 5.0 13.0 0.00 0.71 0.00 79 1007.5
20260507124030 39 219 4.0 13.0 0.00 0.71 0.00 81 1007.5